Time,TemperatureF,DewpointF,PressureIn,WindDirection,WindDirectionDegrees,WindSpeedMPH,WindSpeedGustMPH,Humidity,HourlyPrecipIn,Conditions,Clouds,dailyrainin,SolarRadiationWatts/m^2,SoftwareType,DateUTC
2013-04-02 00:00:00,35.0,12.4,29.65,WNW,298,8.7,19.0,38,0.00,,,-99.99,1.0,HOBO +U30 +Weather +,2013-04-02 04:00:00,
2013-04-02 00:15:00,34.7,12.9,29.66,WNW,300,7.4,16.1,40,0.00,,,-99.99,1.0,HOBO +U30 +Weather +,2013-04-02 04:15:00,
2013-04-02 00:30:00,34.5,12.9,29.66,WNW,289,8.7,19.5,40,0.00,,,-99.99,1.0,HOBO +U30 +Weather +,2013-04-02 04:30:00,
2013-04-02 00:45:00,34.3,13.4,29.67,WNW,286,7.4,17.0,41,0.00,,,-99.99,1.0,HOBO +U30 +Weather +,2013-04-02 04:45:00,
2013-04-02 01:00:00,34.0,13.2,29.68,WNW,285,7.8,17.0,41,0.00,,,-99.99,1.0,HOBO +U30 +Weather +,2013-04-02 05:00:00,
2013-04-02 01:15:00,33.5,13.1,29.68,WNW,291,6.7,14.1,42,0.00,,,-99.99,1.0,HOBO +U30 +Weather +,2013-04-02 05:15:00,
2013-04-02 01:30:00,33.2,13.3,29.69,WNW,282,5.8,12.1,43,0.00,,,-99.99,1.0,HOBO +U30 +Weather +,2013-04-02 05:30:00,
2013-04-02 01:45:00,33.1,13.4,29.69,WNW,285,5.8,12.1,43,0.00,,,-99.99,1.0,HOBO +U30 +Weather +,2013-04-02 05:45:00,
2013-04-02 02:00:00,32.6,12.6,29.69,WNW,282,6.3,15.0,43,0.00,,,-99.99,1.0,HOBO +U30 +Weather +,2013-04-02 06:00:00,
2013-04-02 02:15:00,32.6,12.4,29.69,WNW,289,7.8,17.0,42,0.00,,,-99.99,1.0,HOBO +U30 +Weather +,2013-04-02 06:15:00,
2013-04-02 02:30:00,32.2,11.7,29.68,WNW,286,6.7,15.4,42,0.00,,,-99.99,1.0,HOBO +U30 +Weather +,2013-04-02 06:30:00,
2013-04-02 02:45:00,32.0,10.9,29.69,WNW,295,7.2,14.5,40,0.00,,,-99.99,1.0,HOBO +U30 +Weather +,2013-04-02 06:45:00,
2013-04-02 03:00:00,32.0,10.8,29.69,WNW,291,7.2,14.1,40,0.00,,,-99.99,1.0,HOBO +U30 +Weather +,2013-04-02 07:00:00,
2013-04-02 03:30:00,31.2,10.1,29.69,West,281,4.9,9.6,40,0.00,,,-99.99,1.0,HOBO +U30 +Weather +,2013-04-02 07:30:00,
2013-04-02 03:45:00,31.3,10.4,29.70,West,275,5.8,11.6,41,0.00,,,-99.99,1.0,HOBO +U30 +Weather +,2013-04-02 07:45:00,
2013-04-02 04:00:00,31.0,10.3,29.70,West,267,4.5,8.3,41,0.00,,,-99.99,1.0,HOBO +U30 +Weather +,2013-04-02 08:00:00,
2013-04-02 04:15:00,30.9,11.2,29.70,West,260,4.5,11.2,43,0.00,,,-99.99,1.0,HOBO +U30 +Weather +,2013-04-02 08:15:00,
2013-04-02 04:30:00,30.5,11.5,29.70,West,277,5.4,13.2,44,0.00,,,-99.99,1.0,HOBO +U30 +Weather +,2013-04-02 08:30:00,
2013-04-02 04:45:00,30.5,11.6,29.70,West,275,5.8,10.3,44,0.00,,,-99.99,1.0,HOBO +U30 +Weather +,2013-04-02 08:45:00,
2013-04-02 05:00:00,30.6,12.2,29.70,West,267,5.4,13.2,45,0.00,,,-99.99,1.0,HOBO +U30 +Weather +,2013-04-02 09:00:00,
2013-04-02 05:15:00,30.1,11.5,29.71,WNW,282,6.3,14.1,45,0.00,,,-99.99,1.0,HOBO +U30 +Weather +,2013-04-02 09:15:00,
2013-04-02 05:30:00,30.3,12.1,29.71,West,265,5.8,11.2,46,0.00,,,-99.99,1.0,HOBO +U30 +Weather +,2013-04-02 09:30:00,
2013-04-02 05:45:00,30.1,12.3,29.71,West,263,5.8,11.6,47,0.00,,,-99.99,1.0,HOBO +U30 +Weather +,2013-04-02 09:45:00,
2013-04-02 06:00:00,29.8,12.6,29.72,West,267,5.4,10.7,48,0.00,,,-99.99,1.0,HOBO +U30 +Weather +,2013-04-02 10:00:00,
2013-04-02 06:15:00,29.5,12.7,29.72,West,261,4.5,13.0,49,0.00,,,-99.99,1.0,HOBO +U30 +Weather +,2013-04-02 10:15:00,
2013-04-02 06:30:00,29.5,13.4,29.73,West,268,3.8,8.7,50,0.00,,,-99.99,9.0,HOBO +U30 +Weather +,2013-04-02 10:30:00,
2013-04-02 06:45:00,29.4,14.0,29.73,WSW,237,2.9,6.3,52,0.00,,,-99.99,38.0,HOBO +U30 +Weather +,2013-04-02 10:45:00,
2013-04-02 07:00:00,30.0,14.6,29.73,WSW,250,3.8,9.2,52,0.00,,,-99.99,86.0,HOBO +U30 +Weather +,2013-04-02 11:00:00,
2013-04-02 07:15:00,30.6,15.5,29.74,WSW,250,4.5,9.2,53,0.00,,,-99.99,137.0,HOBO +U30 +Weather +,2013-04-02 11:15:00,
2013-04-02 07:30:00,31.1,16.1,29.74,WSW,256,4.9,9.6,53,0.00,,,-99.99,182.0,HOBO +U30 +Weather +,2013-04-02 11:30:00,
2013-04-02 07:45:00,31.6,16.7,29.74,West,264,5.4,11.6,53,0.00,,,-99.99,228.0,HOBO +U30 +Weather +,2013-04-02 11:45:00,
2013-04-02 08:00:00,32.2,17.1,29.74,WSW,256,6.7,13.2,53,0.00,,,-99.99,278.0,HOBO +U30 +Weather +,2013-04-02 12:00:00,
2013-04-02 08:15:00,32.3,17.0,29.74,West,261,7.4,14.1,52,0.00,,,-99.99,339.0,HOBO +U30 +Weather +,2013-04-02 12:15:00,
2013-04-02 08:30:00,32.2,16.8,29.74,West,265,7.8,15.9,52,0.00,,,-99.99,102.0,HOBO +U30 +Weather +,2013-04-02 12:30:00,
2013-04-02 08:45:00,33.7,17.7,29.75,West,270,7.2,15.9,51,0.00,,,-99.99,196.0,HOBO +U30 +Weather +,2013-04-02 12:45:00,
2013-04-02 09:00:00,34.2,17.8,29.75,West,281,6.7,14.5,50,0.00,,,-99.99,497.0,HOBO +U30 +Weather +,2013-04-02 13:00:00,
2013-04-02 09:15:00,33.8,16.3,29.74,West,271,7.4,14.1,48,0.00,,,-99.99,672.0,HOBO +U30 +Weather +,2013-04-02 13:15:00,
2013-04-02 09:30:00,34.0,16.7,29.74,West,263,10.1,17.4,48,0.00,,,-99.99,624.0,HOBO +U30 +Weather +,2013-04-02 13:30:00,
2013-04-02 09:45:00,35.4,18.0,29.73,West,271,9.6,20.8,48,0.00,,,-99.99,783.0,HOBO +U30 +Weather +,2013-04-02 13:45:00,
2013-04-02 10:00:00,33.2,16.3,29.74,West,263,9.2,17.9,49,0.00,,,-99.99,184.0,HOBO +U30 +Weather +,2013-04-02 14:00:00,
2013-04-02 10:15:00,33.6,16.9,29.75,WNW,292,8.7,16.6,49,0.00,,,-99.99,168.0,HOBO +U30 +Weather +,2013-04-02 14:15:00,
2013-04-02 10:30:00,34.7,16.6,29.74,West,263,11.6,21.5,47,0.00,,,-99.99,551.0,HOBO +U30 +Weather +,2013-04-02 14:30:00,
2013-04-02 10:45:00,34.2,15.3,29.73,West,265,13.0,22.8,45,0.00,,,-99.99,818.0,HOBO +U30 +Weather +,2013-04-02 14:45:00,
2013-04-02 11:00:00,35.4,15.8,29.74,West,268,11.6,21.5,44,0.00,,,-99.99,1044.0,HOBO +U30 +Weather +,2013-04-02 15:00:00,
2013-04-02 11:15:00,37.3,16.3,29.73,West,268,10.1,22.4,41,0.00,,,-99.99,1051.0,HOBO +U30 +Weather +,2013-04-02 15:15:00,
2013-04-02 11:30:00,36.6,15.5,29.72,West,264,11.6,20.4,41,0.00,,,-99.99,413.0,HOBO +U30 +Weather +,2013-04-02 15:30:00,
2013-04-02 11:45:00,35.5,14.3,29.72,West,279,11.2,21.5,41,0.00,,,-99.99,283.0,HOBO +U30 +Weather +,2013-04-02 15:45:00,
2013-04-02 12:00:00,37.2,15.1,29.72,WNW,288,10.7,20.8,39,0.00,,,-99.99,477.0,HOBO +U30 +Weather +,2013-04-02 16:00:00,
2013-04-02 12:15:00,36.0,13.2,29.72,West,265,12.1,22.8,38,0.00,,,-99.99,292.0,HOBO +U30 +Weather +,2013-04-02 16:15:00,
2013-04-02 12:30:00,37.6,15.3,29.71,West,261,9.6,20.4,39,0.00,,,-99.99,292.0,HOBO +U30 +Weather +,2013-04-02 16:30:00,
2013-04-02 12:45:00,37.9,14.9,29.71,WNW,284,11.2,17.9,38,0.00,,,-99.99,979.0,HOBO +U30 +Weather +,2013-04-02 16:45:00,
2013-04-02 13:00:00,36.6,14.0,29.71,West,264,11.2,21.5,38,0.00,,,-99.99,593.0,HOBO +U30 +Weather +,2013-04-02 17:00:00,
2013-04-02 13:15:00,37.2,14.3,29.70,West,277,10.3,26.2,38,0.00,,,-99.99,292.0,HOBO +U30 +Weather +,2013-04-02 17:15:00,
2013-04-02 13:30:00,38.0,13.6,29.70,West,275,12.5,26.2,36,0.00,,,-99.99,356.0,HOBO +U30 +Weather +,2013-04-02 17:30:00,
2013-04-02 13:45:00,39.0,12.9,29.69,West,268,13.6,24.8,33,0.00,,,-99.99,1027.0,HOBO +U30 +Weather +,2013-04-02 17:45:00,
2013-04-02 14:00:00,38.5,11.6,29.69,West,268,13.2,26.2,32,0.00,,,-99.99,226.0,HOBO +U30 +Weather +,2013-04-02 18:00:00,
2013-04-02 14:15:00,38.8,11.7,29.68,West,263,13.0,29.1,32,0.00,,,-99.99,262.0,HOBO +U30 +Weather +,2013-04-02 18:15:00,
2013-04-02 14:30:00,39.3,11.5,29.69,West,271,10.7,22.8,31,0.00,,,-99.99,303.0,HOBO +U30 +Weather +,2013-04-02 18:30:00,
2013-04-02 14:45:00,39.1,11.4,29.68,West,267,13.2,24.8,31,0.00,,,-99.99,572.0,HOBO +U30 +Weather +,2013-04-02 18:45:00,
2013-04-02 15:00:00,40.0,11.2,29.67,West,264,14.5,31.1,30,0.00,,,-99.99,246.0,HOBO +U30 +Weather +,2013-04-02 19:00:00,
2013-04-02 15:15:00,40.6,11.7,29.67,WNW,282,13.0,23.3,30,0.00,,,-99.99,732.0,HOBO +U30 +Weather +,2013-04-02 19:15:00,
2013-04-02 15:30:00,39.7,10.8,29.67,West,281,13.2,29.5,30,0.00,,,-99.99,748.0,HOBO +U30 +Weather +,2013-04-02 19:30:00,
2013-04-02 15:45:00,39.4,10.3,29.67,West,261,15.4,29.1,29,0.00,,,-99.99,669.0,HOBO +U30 +Weather +,2013-04-02 19:45:00,
2013-04-02 16:00:00,39.3,10.5,29.67,West,275,14.5,29.5,30,0.00,,,-99.99,191.0,HOBO +U30 +Weather +,2013-04-02 20:00:00,
2013-04-02 16:30:00,39.9,11.9,29.68,West,278,11.6,26.2,31,0.00,,,-99.99,548.0,HOBO +U30 +Weather +,2013-04-02 20:30:00,
2013-04-02 16:45:00,39.7,11.2,29.69,West,274,13.2,27.3,30,0.00,,,-99.99,466.0,HOBO +U30 +Weather +,2013-04-02 20:45:00,
2013-04-02 17:00:00,38.8,9.9,29.70,West,272,13.0,27.1,29,0.00,,,-99.99,169.0,HOBO +U30 +Weather +,2013-04-02 21:00:00,
2013-04-02 17:30:00,38.1,9.9,29.71,WNW,288,12.5,29.5,30,0.00,,,-99.99,382.0,HOBO +U30 +Weather +,2013-04-02 21:30:00,
2013-04-02 17:45:00,39.3,11.4,29.71,WNW,285,10.1,21.9,31,0.00,,,-99.99,243.0,HOBO +U30 +Weather +,2013-04-02 21:45:00,
2013-04-02 18:00:00,37.7,10.0,29.72,WNW,296,10.7,20.4,31,0.00,,,-99.99,199.0,HOBO +U30 +Weather +,2013-04-02 22:00:00,
2013-04-02 18:15:00,36.8,9.6,29.72,West,277,13.0,28.6,31,0.00,,,-99.99,77.0,HOBO +U30 +Weather +,2013-04-02 22:15:00,
2013-04-02 18:30:00,37.3,10.2,29.73,West,278,10.1,24.4,32,0.00,,,-99.99,108.0,HOBO +U30 +Weather +,2013-04-02 22:30:00,
2013-04-02 18:45:00,36.1,8.2,29.74,West,278,13.0,29.1,30,0.00,,,-99.99,27.0,HOBO +U30 +Weather +,2013-04-02 22:45:00,
2013-04-02 19:00:00,35.4,8.7,29.75,WNW,285,10.3,22.4,32,0.00,,,-99.99,12.0,HOBO +U30 +Weather +,2013-04-02 23:00:00,
2013-04-02 19:15:00,35.2,10.0,29.75,West,278,10.3,21.9,34,0.00,,,-99.99,2.0,HOBO +U30 +Weather +,2013-04-02 23:15:00,
2013-04-02 19:30:00,35.1,10.7,29.76,West,277,9.2,21.5,35,0.00,,,-99.99,1.0,HOBO +U30 +Weather +,2013-04-02 23:30:00,
2013-04-02 19:45:00,35.1,10.9,29.76,West,268,12.5,22.8,36,0.00,,,-99.99,1.0,HOBO +U30 +Weather +,2013-04-02 23:45:00,
2013-04-02 20:00:00,34.9,10.4,29.77,West,279,13.0,22.8,35,0.00,,,-99.99,1.0,HOBO +U30 +Weather +,2013-04-03 00:00:00,
2013-04-02 20:15:00,34.5,10.1,29.78,WNW,286,10.3,22.8,35,0.00,,,-99.99,1.0,HOBO +U30 +Weather +,2013-04-03 00:15:00,
2013-04-02 20:30:00,34.3,10.6,29.79,WNW,289,8.7,17.9,36,0.00,,,-99.99,1.0,HOBO +U30 +Weather +,2013-04-03 00:30:00,
2013-04-02 20:45:00,34.3,11.1,29.79,West,278,7.8,20.4,37,0.00,,,-99.99,1.0,HOBO +U30 +Weather +,2013-04-03 00:45:00,
2013-04-02 21:00:00,34.2,11.3,29.80,West,277,8.3,20.8,38,0.00,,,-99.99,1.0,HOBO +U30 +Weather +,2013-04-03 01:00:00,
2013-04-02 21:15:00,34.2,12.1,29.80,West,270,9.2,21.3,39,0.00,,,-99.99,1.0,HOBO +U30 +Weather +,2013-04-03 01:15:00,
2013-04-02 21:30:00,34.1,12.4,29.80,West,270,10.1,22.8,40,0.00,,,-99.99,1.0,HOBO +U30 +Weather +,2013-04-03 01:30:00,
2013-04-02 21:45:00,33.8,12.2,29.80,West,264,9.2,16.6,40,0.00,,,-99.99,1.0,HOBO +U30 +Weather +,2013-04-03 01:45:00,
2013-04-02 22:00:00,33.7,12.5,29.80,West,271,7.8,20.8,40,0.00,,,-99.99,1.0,HOBO +U30 +Weather +,2013-04-03 02:00:00,
2013-04-02 22:15:00,33.6,12.5,29.80,West,271,8.3,18.6,41,0.00,,,-99.99,1.0,HOBO +U30 +Weather +,2013-04-03 02:15:00,
2013-04-02 22:30:00,33.5,12.6,29.80,West,275,9.2,18.6,41,0.00,,,-99.99,1.0,HOBO +U30 +Weather +,2013-04-03 02:30:00,
2013-04-02 22:45:00,33.2,13.1,29.79,West,267,8.7,19.0,42,0.00,,,-99.99,1.0,HOBO +U30 +Weather +,2013-04-03 02:45:00,
2013-04-02 23:00:00,33.2,13.8,29.80,West,268,8.3,16.6,44,0.00,,,-99.99,1.0,HOBO +U30 +Weather +,2013-04-03 03:00:00,
2013-04-02 23:15:00,32.9,13.9,29.80,West,271,8.3,19.0,45,0.00,,,-99.99,1.0,HOBO +U30 +Weather +,2013-04-03 03:15:00,
2013-04-02 23:30:00,32.8,14.2,29.80,West,264,8.3,18.6,45,0.00,,,-99.99,1.0,HOBO +U30 +Weather +,2013-04-03 03:30:00,
2013-04-02 23:45:00,32.8,14.3,29.80,West,272,8.3,21.3,46,0.00,,,-99.99,1.0,HOBO +U30 +Weather +,2013-04-03 03:45:00,